CPA357 ZSNJ-VHHH

Flight info

Callsign CPA357
Flight time 2h 2m
Altitude 40100
Route TES42X TESIG A470 BEBEM/N0492F401 A470 DOTMI/N0491F400 V512 ABBEY
Aircraft A359/H-SDE2E3GHIJ3J4J5LM1ORWXY/LB1D1

Departure

Time 2026-05-05 02:26
Airport Nanjing Lukou International Airport (ZSNJ)

Arrival

Time 2026-05-05 04:28
Airport Hong Kong International Airport (VHHH)
Time Latitude Longitude Altitude Speed Heading
2026-05-05 01:46 31.73278 118.87482 64 ft 0 kts 328°
2026-05-05 02:09 31.73266 118.87491 64 ft 3 kts 328°
2026-05-05 02:10 31.73249 118.87504 55 ft 3 kts 328°
2026-05-05 02:10 31.73234 118.87516 55 ft 3 kts 318°
2026-05-05 02:10 31.73222 118.87530 57 ft 3 kts 295°
2026-05-05 02:10 31.73216 118.87547 64 ft 3 kts 266°
2026-05-05 02:11 31.73219 118.87567 64 ft 3 kts 245°
2026-05-05 02:11 31.73229 118.87588 64 ft 3 kts 237°
2026-05-05 02:11 31.73239 118.87606 64 ft 2 kts 237°
2026-05-05 02:11 31.73241 118.87609 64 ft 0 kts 238°
2026-05-05 02:14 31.73239 118.87606 64 ft 3 kts 238°
2026-05-05 02:14 31.73219 118.87567 64 ft 7 kts 238°
2026-05-05 02:14 31.73190 118.87513 64 ft 9 kts 238°
2026-05-05 02:14 31.73138 118.87479 56 ft 9 kts 174°
2026-05-05 02:15 31.73076 118.87469 57 ft 10 kts 217°
2026-05-05 02:15 31.73033 118.87400 64 ft 11 kts 237°
2026-05-05 02:15 31.72987 118.87314 64 ft 13 kts 238°
2026-05-05 02:15 31.72933 118.87215 60 ft 15 kts 238°
2026-05-05 02:16 31.72873 118.87104 65 ft 17 kts 237°
2026-05-05 02:16 31.72811 118.86988 65 ft 17 kts 238°
2026-05-05 02:16 31.72748 118.86869 55 ft 17 kts 238°
2026-05-05 02:16 31.72682 118.86745 65 ft 18 kts 238°
2026-05-05 02:17 31.72630 118.86647 55 ft 10 kts 243°
2026-05-05 02:17 31.72652 118.86580 56 ft 10 kts 322°
2026-05-05 02:17 31.72717 118.86532 61 ft 12 kts 328°
2026-05-05 02:17 31.72795 118.86474 60 ft 14 kts 328°
2026-05-05 02:18 31.72883 118.86409 55 ft 16 kts 328°
2026-05-05 02:18 31.72983 118.86336 57 ft 18 kts 328°
2026-05-05 02:18 31.73092 118.86255 55 ft 19 kts 328°
2026-05-05 02:18 31.73211 118.86167 55 ft 21 kts 328°
2026-05-05 02:19 31.73339 118.86073 57 ft 22 kts 328°
2026-05-05 02:19 31.73468 118.85978 55 ft 21 kts 328°
2026-05-05 02:19 31.73592 118.85886 59 ft 21 kts 328°
2026-05-05 02:19 31.73692 118.85812 55 ft 13 kts 328°
2026-05-05 02:20 31.73764 118.85778 59 ft 11 kts
2026-05-05 02:20 31.73816 118.85841 65 ft 12 kts 58°
2026-05-05 02:20 31.73863 118.85930 55 ft 14 kts 58°
2026-05-05 02:20 31.73917 118.86033 55 ft 16 kts 58°
2026-05-05 02:21 31.73979 118.86147 64 ft 17 kts 57°
2026-05-05 02:21 31.74045 118.86268 55 ft 19 kts 57°
2026-05-05 02:21 31.74117 118.86402 56 ft 20 kts 58°
2026-05-05 02:21 31.74191 118.86541 55 ft 19 kts 58°
2026-05-05 02:22 31.74252 118.86657 55 ft 17 kts 58°
2026-05-05 02:22 31.74316 118.86777 57 ft 18 kts 57°
2026-05-05 02:22 31.74387 118.86910 56 ft 20 kts 58°
2026-05-05 02:22 31.74463 118.87050 55 ft 21 kts 58°
2026-05-05 02:23 31.74544 118.87202 55 ft 20 kts 57°
2026-05-05 02:23 31.74620 118.87342 64 ft 21 kts 57°
2026-05-05 02:23 31.74693 118.87480 56 ft 17 kts 58°
2026-05-05 02:23 31.74760 118.87605 55 ft 19 kts 58°
2026-05-05 02:24 31.74833 118.87740 57 ft 20 kts 57°
2026-05-05 02:24 31.74894 118.87855 65 ft 12 kts 58°
2026-05-05 02:24 31.74961 118.87882 57 ft 11 kts 340°
2026-05-05 02:24 31.75030 118.87832 59 ft 12 kts 324°
2026-05-05 02:25 31.75049 118.87747 66 ft 12 kts 246°
2026-05-05 02:25 31.74947 118.87556 61 ft 57 kts 238°
2026-05-05 02:25 31.74609 118.86927 58 ft 122 kts 238°
2026-05-05 02:25 31.74055 118.85893 99 ft 173 kts 237°
2026-05-05 02:26 31.73431 118.84742 908 ft 162 kts 237°
2026-05-05 02:26 31.72833 118.83621 1709 ft 162 kts 237°
2026-05-05 02:26 31.72236 118.82491 2361 ft 162 kts 237°
2026-05-05 02:26 31.71844 118.81737 2754 ft 165 kts 236°
2026-05-05 02:27 31.71191 118.80606 3238 ft 171 kts 228°
2026-05-05 02:27 31.70177 118.79799 3424 ft 185 kts 195°
2026-05-05 02:27 31.68436 118.80182 3766 ft 213 kts 142°
2026-05-05 02:27 31.67817 118.81118 4108 ft 220 kts 114°
2026-05-05 02:28 31.67597 118.82902 4745 ft 224 kts 90°
2026-05-05 02:28 31.67662 118.84748 5339 ft 229 kts 88°
2026-05-05 02:28 31.67746 118.86652 5716 ft 245 kts 88°
2026-05-05 02:28 31.67814 118.88723 6041 ft 261 kts 89°
2026-05-05 02:29 31.67870 118.90910 6452 ft 274 kts 89°
2026-05-05 02:29 31.67922 118.93170 7018 ft 279 kts 89°
2026-05-05 02:29 31.67896 118.95456 7581 ft 282 kts 98°
2026-05-05 02:29 31.67143 118.97564 8152 ft 284 kts 129°
2026-05-05 02:30 31.65658 118.99083 8774 ft 285 kts 145°
2026-05-05 02:30 31.64014 119.00404 9340 ft 288 kts 146°
2026-05-05 02:30 31.62347 119.01751 9914 ft 292 kts 146°
2026-05-05 02:30 31.60679 119.03129 10511 ft 294 kts 146°
2026-05-05 02:31 31.59001 119.04531 11085 ft 298 kts 145°
2026-05-05 02:31 31.57313 119.05973 11655 ft 301 kts 144°
2026-05-05 02:31 31.55656 119.07430 12219 ft 304 kts 144°
2026-05-05 02:31 31.53955 119.08922 12798 ft 307 kts 145°
2026-05-05 02:32 31.52206 119.10450 13128 ft 320 kts 145°
2026-05-05 02:32 31.50377 119.12050 13380 ft 333 kts 145°
2026-05-05 02:32 31.48482 119.13709 13640 ft 346 kts 145°
2026-05-05 02:32 31.46513 119.15431 13873 ft 358 kts 145°
2026-05-05 02:33 31.44486 119.17201 14101 ft 370 kts 145°
2026-05-05 02:33 31.42418 119.19008 14319 ft 380 kts 145°
2026-05-05 02:33 31.40272 119.20884 14579 ft 389 kts 145°
2026-05-05 02:33 31.38087 119.22791 14965 ft 393 kts 145°
2026-05-05 02:34 31.35890 119.24709 15383 ft 396 kts 145°
2026-05-05 02:34 31.33670 119.26641 15784 ft 399 kts 145°
2026-05-05 02:34 31.31433 119.28590 16199 ft 402 kts 145°
2026-05-05 02:34 31.29184 119.30549 16602 ft 405 kts 145°
2026-05-05 02:35 31.26909 119.32527 17023 ft 407 kts 145°
2026-05-05 02:35 31.24629 119.34508 17425 ft 410 kts 145°
2026-05-05 02:35 31.22366 119.36475 17798 ft 412 kts 145°
2026-05-05 02:35 31.20057 119.38483 18177 ft 415 kts 145°
2026-05-05 02:36 31.17738 119.40508 18575 ft 417 kts 145°
2026-05-05 02:36 31.15411 119.42546 18942 ft 420 kts 145°
2026-05-05 02:36 31.13067 119.44595 19309 ft 422 kts 146°
2026-05-05 02:36 31.10712 119.46653 19666 ft 424 kts 146°
2026-05-05 02:37 31.08342 119.48721 20005 ft 427 kts 146°
2026-05-05 02:37 31.05956 119.50803 20344 ft 429 kts 146°
2026-05-05 02:37 31.03553 119.52899 20684 ft 432 kts 146°
2026-05-05 02:37 31.01141 119.55001 21011 ft 433 kts 146°
2026-05-05 02:38 30.98719 119.57111 21321 ft 436 kts 146°
2026-05-05 02:38 30.96283 119.59233 21629 ft 438 kts 146°
2026-05-05 02:38 30.93833 119.61365 21927 ft 440 kts 146°
2026-05-05 02:38 30.91377 119.63500 22214 ft 442 kts 146°
2026-05-05 02:39 30.88934 119.65620 22507 ft 444 kts 147°
2026-05-05 02:39 30.86447 119.67775 22786 ft 446 kts 147°
2026-05-05 02:39 30.83954 119.69934 23091 ft 448 kts 147°
2026-05-05 02:39 30.81452 119.72102 23352 ft 450 kts 147°
2026-05-05 02:40 30.78861 119.74147 23607 ft 448 kts 154°
2026-05-05 02:40 30.76033 119.75628 23870 ft 443 kts 166°
2026-05-05 02:40 30.73033 119.76332 24137 ft 437 kts 180°
2026-05-05 02:40 30.70008 119.76414 24414 ft 434 kts 186°
2026-05-05 02:41 30.67036 119.76186 24717 ft 432 kts 190°
2026-05-05 02:41 30.64050 119.75803 25024 ft 431 kts 192°
2026-05-05 02:41 30.61068 119.75368 25304 ft 432 kts 192°
2026-05-05 02:41 30.58076 119.74938 25635 ft 432 kts 192°
2026-05-05 02:42 30.55086 119.74532 25967 ft 433 kts 192°
2026-05-05 02:42 30.52091 119.74150 26255 ft 433 kts 192°
2026-05-05 02:42 30.49080 119.73783 26489 ft 435 kts 192°
2026-05-05 02:42 30.46072 119.73426 26764 ft 435 kts 192°
2026-05-05 02:43 30.43044 119.73077 27051 ft 436 kts 192°
2026-05-05 02:43 30.40060 119.72737 27307 ft 437 kts 192°
2026-05-05 02:43 30.37037 119.72392 27628 ft 437 kts 192°
2026-05-05 02:43 30.34011 119.72046 27965 ft 437 kts 193°
2026-05-05 02:44 30.30981 119.71698 28300 ft 438 kts 193°
2026-05-05 02:44 30.27950 119.71349 28633 ft 438 kts 193°
2026-05-05 02:44 30.24919 119.71001 28980 ft 438 kts 193°
2026-05-05 02:44 30.21877 119.70662 29297 ft 439 kts 194°
2026-05-05 02:45 30.18835 119.70314 29649 ft 439 kts 194°
2026-05-05 02:45 30.15799 119.69963 29944 ft 439 kts 194°
2026-05-05 02:45 30.12746 119.69597 30199 ft 441 kts 194°
2026-05-05 02:45 30.09683 119.69236 30414 ft 444 kts 195°
2026-05-05 02:46 30.06603 119.68877 30684 ft 444 kts 194°
2026-05-05 02:46 30.03566 119.68531 30974 ft 445 kts 194°
2026-05-05 02:46 30.00474 119.68178 31181 ft 447 kts 194°
2026-05-05 02:46 29.97360 119.67821 31354 ft 451 kts 194°
2026-05-05 02:47 29.94229 119.67464 31626 ft 451 kts 194°
2026-05-05 02:47 29.91099 119.67107 31808 ft 454 kts 195°
2026-05-05 02:47 29.87946 119.66747 31964 ft 456 kts 194°
2026-05-05 02:47 29.84784 119.66389 32147 ft 458 kts 194°
2026-05-05 02:48 29.81595 119.66109 32438 ft 460 kts 192°
2026-05-05 02:48 29.78398 119.65945 32755 ft 460 kts 191°
2026-05-05 02:48 29.75199 119.65826 33032 ft 460 kts 191°
2026-05-05 02:48 29.72006 119.65687 33318 ft 458 kts 192°
2026-05-05 02:49 29.68815 119.65502 33542 ft 459 kts 193°
2026-05-05 02:49 29.65625 119.65290 33814 ft 458 kts 193°
2026-05-05 02:49 29.62485 119.65070 34134 ft 457 kts 193°
2026-05-05 02:49 29.59302 119.64891 34423 ft 459 kts 192°
2026-05-05 02:50 29.56101 119.64794 34663 ft 461 kts 191°
2026-05-05 02:50 29.52886 119.64724 34836 ft 463 kts 191°
2026-05-05 02:50 29.49671 119.64592 35133 ft 460 kts 192°
2026-05-05 02:50 29.46474 119.64411 35398 ft 459 kts 193°
2026-05-05 02:51 29.43280 119.64203 35545 ft 460 kts 193°
2026-05-05 02:51 29.40079 119.63986 35714 ft 461 kts 193°
2026-05-05 02:51 29.36882 119.63774 36012 ft 460 kts 193°
2026-05-05 02:51 29.33717 119.63570 36265 ft 459 kts 193°
2026-05-05 02:52 29.30519 119.63368 36464 ft 461 kts 193°
2026-05-05 02:52 29.27311 119.63168 36625 ft 462 kts 193°
2026-05-05 02:52 29.24096 119.62972 36870 ft 462 kts 193°
2026-05-05 02:52 29.20904 119.62780 37259 ft 458 kts 193°
2026-05-05 02:53 29.17730 119.62592 37597 ft 456 kts 193°
2026-05-05 02:53 29.14554 119.62402 37848 ft 457 kts 193°
2026-05-05 02:53 29.11379 119.62209 38090 ft 456 kts 193°
2026-05-05 02:53 29.08197 119.62014 38270 ft 457 kts 193°
2026-05-05 02:54 29.05056 119.61825 38461 ft 458 kts 193°
2026-05-05 02:54 29.01873 119.61627 38650 ft 457 kts 193°
2026-05-05 02:54 28.98686 119.61424 38792 ft 459 kts 193°
2026-05-05 02:54 28.95491 119.61219 38929 ft 460 kts 193°
2026-05-05 02:55 28.92285 119.61015 39080 ft 461 kts 193°
2026-05-05 02:55 28.89086 119.60815 39285 ft 460 kts 193°
2026-05-05 02:55 28.85886 119.60616 39397 ft 461 kts 193°
2026-05-05 02:56 28.79455 119.60214 39671 ft 463 kts 193°
2026-05-05 02:56 28.72996 119.59813 39840 ft 466 kts 193°
2026-05-05 02:56 28.69807 119.59618 40047 ft 464 kts 193°
2026-05-05 02:57 28.66578 119.59420 40129 ft 466 kts 193°
2026-05-05 02:57 28.60049 119.59012 40186 ft 472 kts 193°
2026-05-05 02:58 28.53447 119.58601 40182 ft 476 kts 193°
2026-05-05 02:58 28.46852 119.58196 40181 ft 479 kts 193°
2026-05-05 02:59 28.40179 119.57810 40180 ft 480 kts 192°
2026-05-05 02:59 28.33492 119.57449 40191 ft 481 kts 192°
2026-05-05 03:00 28.26814 119.57089 40187 ft 480 kts 192°
2026-05-05 03:00 28.20131 119.56719 40196 ft 480 kts 192°
2026-05-05 03:01 28.13445 119.56350 40191 ft 481 kts 193°
2026-05-05 03:01 28.06787 119.56023 40191 ft 483 kts 191°
2026-05-05 03:02 28.00041 119.55927 40197 ft 485 kts 190°
2026-05-05 03:02 27.93284 119.55882 40189 ft 486 kts 190°
2026-05-05 03:03 27.86526 119.55832 40201 ft 485 kts 190°
2026-05-05 03:03 27.79764 119.55809 40203 ft 485 kts 190°
2026-05-05 03:04 27.73010 119.55781 40201 ft 485 kts 190°
2026-05-05 03:04 27.66275 119.55743 40204 ft 484 kts 190°
2026-05-05 03:05 27.59538 119.55702 40205 ft 484 kts 190°
2026-05-05 03:05 27.52800 119.55663 40200 ft 484 kts 190°
2026-05-05 03:06 27.46108 119.55625 40208 ft 484 kts 190°
2026-05-05 03:06 27.39369 119.55592 40211 ft 484 kts 190°
2026-05-05 03:07 27.32626 119.55584 40211 ft 484 kts 189°
2026-05-05 03:07 27.25876 119.55582 40210 ft 485 kts 189°
2026-05-05 03:08 27.19137 119.55553 40208 ft 484 kts 190°
2026-05-05 03:08 27.12394 119.55503 40207 ft 484 kts 190°
2026-05-05 03:09 27.05639 119.55454 40214 ft 485 kts 190°
2026-05-05 03:09 26.98932 119.55410 40218 ft 486 kts 189°
2026-05-05 03:10 26.92150 119.55367 40217 ft 487 kts 189°
2026-05-05 03:10 26.85365 119.55324 40219 ft 488 kts 189°
2026-05-05 03:11 26.78568 119.55281 40218 ft 488 kts 189°
2026-05-05 03:11 26.71782 119.55238 40218 ft 487 kts 189°
2026-05-05 03:12 26.64995 119.55195 40218 ft 487 kts 189°
2026-05-05 03:12 26.58219 119.55152 40223 ft 487 kts 189°
2026-05-05 03:13 26.51515 119.55115 40226 ft 482 kts 189°
2026-05-05 03:13 26.44818 119.55072 40228 ft 481 kts 189°
2026-05-05 03:14 26.38124 119.55028 40227 ft 480 kts 189°
2026-05-05 03:14 26.31435 119.54967 40226 ft 481 kts 189°
2026-05-05 03:15 26.25866 119.54888 40228 ft 480 kts 189°
2026-05-05 03:15 26.21513 119.54419 40227 ft 469 kts 199°
2026-05-05 03:15 26.18362 119.53580 40228 ft 463 kts 203°
2026-05-05 03:16 26.13192 119.51906 40229 ft 461 kts 205°
2026-05-05 03:16 26.07096 119.49796 40228 ft 461 kts 205°
2026-05-05 03:17 26.00968 119.47673 40226 ft 461 kts 205°
2026-05-05 03:17 25.94833 119.45573 40228 ft 462 kts 205°
2026-05-05 03:18 25.88680 119.43481 40227 ft 462 kts 205°
2026-05-05 03:18 25.82522 119.41392 40229 ft 463 kts 205°
2026-05-05 03:19 25.73776 119.37304 40229 ft 447 kts 220°
2026-05-05 03:19 25.69153 119.32889 40227 ft 438 kts 230°
2026-05-05 03:20 25.64959 119.27999 40225 ft 438 kts 231°
2026-05-05 03:20 25.60805 119.23041 40221 ft 438 kts 231°
2026-05-05 03:21 25.56636 119.18106 40217 ft 439 kts 231°
2026-05-05 03:21 25.52443 119.13187 40218 ft 439 kts 231°
2026-05-05 03:22 25.48242 119.08271 40219 ft 440 kts 231°
2026-05-05 03:22 25.44030 119.03350 40211 ft 441 kts 231°
2026-05-05 03:23 25.39834 118.98451 40209 ft 441 kts 231°
2026-05-05 03:23 25.35601 118.93515 40203 ft 442 kts 231°
2026-05-05 03:24 25.31395 118.88565 40204 ft 441 kts 232°
2026-05-05 03:24 25.27267 118.83542 40202 ft 441 kts 232°
2026-05-05 03:25 25.23168 118.78542 40190 ft 442 kts 232°
2026-05-05 03:25 25.19027 118.73524 40186 ft 442 kts 232°
2026-05-05 03:26 25.14874 118.68513 40183 ft 441 kts 232°
2026-05-05 03:26 25.10722 118.63512 40186 ft 441 kts 232°
2026-05-05 03:27 25.06529 118.58525 40178 ft 443 kts 231°
2026-05-05 03:27 25.02239 118.53628 40182 ft 444 kts 230°
2026-05-05 03:28 24.97927 118.48729 40180 ft 445 kts 230°
2026-05-05 03:28 24.93628 118.43820 40181 ft 445 kts 230°
2026-05-05 03:29 24.89332 118.38904 40181 ft 446 kts 230°
2026-05-05 03:29 24.85055 118.34011 40177 ft 447 kts 230°
2026-05-05 03:30 24.80737 118.29077 40173 ft 447 kts 230°
2026-05-05 03:30 24.76414 118.24144 40173 ft 448 kts 230°
2026-05-05 03:31 24.72080 118.19204 40173 ft 449 kts 230°
2026-05-05 03:31 24.67734 118.14267 40179 ft 449 kts 230°
2026-05-05 03:32 24.63406 118.09351 40172 ft 450 kts 230°
2026-05-05 03:32 24.59052 118.04403 40173 ft 451 kts 230°
2026-05-05 03:33 24.54700 117.99448 40173 ft 451 kts 231°
2026-05-05 03:33 24.50474 117.94345 40172 ft 450 kts 232°
2026-05-05 03:34 24.46292 117.89209 40175 ft 451 kts 232°
2026-05-05 03:34 24.42109 117.84123 40173 ft 452 kts 232°
2026-05-05 03:35 24.37881 117.79021 40174 ft 452 kts 232°
2026-05-05 03:35 24.33639 117.73918 40175 ft 452 kts 232°
2026-05-05 03:36 24.29393 117.68814 40173 ft 452 kts 232°
2026-05-05 03:36 24.25178 117.63752 40173 ft 452 kts 232°
2026-05-05 03:37 24.20928 117.58652 40180 ft 453 kts 232°
2026-05-05 03:37 24.16676 117.53557 40177 ft 453 kts 232°
2026-05-05 03:38 24.12254 117.48625 40179 ft 456 kts 227°
2026-05-05 03:38 24.07558 117.43948 40175 ft 456 kts 226°
2026-05-05 03:39 24.02859 117.39354 40174 ft 456 kts 226°
2026-05-05 03:39 23.98124 117.34734 40173 ft 456 kts 226°
2026-05-05 03:40 23.93389 117.30107 40174 ft 458 kts 226°
2026-05-05 03:40 23.88630 117.25455 40170 ft 459 kts 226°
2026-05-05 03:41 23.83893 117.20827 40176 ft 460 kts 226°
2026-05-05 03:41 23.79114 117.16166 40175 ft 461 kts 226°
2026-05-05 03:42 23.74362 117.11461 40174 ft 459 kts 229°
2026-05-05 03:42 23.69964 117.06437 40172 ft 457 kts 231°
2026-05-05 03:43 23.66500 117.02334 40173 ft 458 kts 231°
2026-05-05 03:43 23.62050 116.97162 40172 ft 458 kts 230°
2026-05-05 03:44 23.57643 116.92134 40173 ft 459 kts 230°
2026-05-05 03:44 23.53222 116.87120 40173 ft 459 kts 230°
2026-05-05 03:45 23.48787 116.82097 40172 ft 459 kts 230°
2026-05-05 03:45 23.44302 116.77132 40172 ft 462 kts 226°
2026-05-05 03:46 23.39291 116.72715 40173 ft 465 kts 223°
2026-05-05 03:46 23.34150 116.68434 40172 ft 465 kts 222°
2026-05-05 03:47 23.29019 116.64200 40172 ft 465 kts 222°
2026-05-05 03:47 23.23859 116.59932 40173 ft 466 kts 222°
2026-05-05 03:48 23.18697 116.55655 40173 ft 466 kts 222°
2026-05-05 03:48 23.13538 116.51382 40172 ft 466 kts 222°
2026-05-05 03:49 23.08446 116.47175 40172 ft 455 kts 222°
2026-05-05 03:49 23.03454 116.43048 40173 ft 453 kts 222°
2026-05-05 03:50 22.98436 116.38900 40173 ft 453 kts 222°
2026-05-05 03:50 22.93409 116.34752 40173 ft 454 kts 222°
2026-05-05 03:51 22.88386 116.30585 40173 ft 454 kts 222°
2026-05-05 03:51 22.83376 116.26414 40103 ft 454 kts 222°
2026-05-05 03:52 22.80900 116.24356 39998 ft 455 kts 222°
2026-05-05 03:52 22.78389 116.22271 39751 ft 455 kts 222°
2026-05-05 03:52 22.75869 116.20182 39504 ft 455 kts 222°
2026-05-05 03:52 22.73352 116.18097 39255 ft 456 kts 222°
2026-05-05 03:53 22.70832 116.16011 38999 ft 456 kts 222°
2026-05-05 03:53 22.68299 116.13936 38758 ft 456 kts 221°
2026-05-05 03:53 22.65763 116.11870 38511 ft 456 kts 221°
2026-05-05 03:53 22.63225 116.09807 38263 ft 455 kts 221°
2026-05-05 03:54 22.60686 116.07743 38013 ft 455 kts 221°
2026-05-05 03:54 22.58185 116.05708 37768 ft 456 kts 221°
2026-05-05 03:54 22.55651 116.03646 37520 ft 455 kts 221°
2026-05-05 03:54 22.53122 116.01589 37272 ft 455 kts 221°
2026-05-05 03:55 22.50593 115.99534 37023 ft 454 kts 221°
2026-05-05 03:55 22.48066 115.97481 36720 ft 453 kts 221°
2026-05-05 03:55 22.45546 115.95436 36131 ft 451 kts 222°
2026-05-05 03:55 22.43036 115.93397 35461 ft 452 kts 221°
2026-05-05 03:56 22.40519 115.91353 34754 ft 452 kts 221°
2026-05-05 03:56 22.37996 115.89304 33973 ft 454 kts 221°
2026-05-05 03:56 22.35587 115.87110 33147 ft 452 kts 228°
2026-05-05 03:56 22.33480 115.84606 32310 ft 449 kts 236°
2026-05-05 03:57 22.31753 115.81809 31473 ft 447 kts 243°
2026-05-05 03:57 22.30463 115.78771 30621 ft 445 kts 251°
2026-05-05 03:57 22.29640 115.75545 29749 ft 445 kts 260°
2026-05-05 03:57 22.29298 115.72269 29045 ft 443 kts 266°
2026-05-05 03:58 22.29154 115.68966 28392 ft 439 kts 267°
2026-05-05 03:58 22.29069 115.65678 27723 ft 436 kts 268°
2026-05-05 03:58 22.29008 115.62416 27073 ft 433 kts 268°
2026-05-05 03:58 22.28949 115.59171 26426 ft 430 kts 268°
2026-05-05 03:59 22.28883 115.55950 25775 ft 427 kts 268°
2026-05-05 03:59 22.28808 115.52755 25131 ft 423 kts 268°
2026-05-05 03:59 22.28724 115.49587 24493 ft 421 kts 268°
2026-05-05 03:59 22.28638 115.46440 23856 ft 417 kts 268°
2026-05-05 04:00 22.28549 115.43319 23226 ft 414 kts 268°
2026-05-05 04:00 22.28462 115.40257 22599 ft 411 kts 267°
2026-05-05 04:00 22.28373 115.37180 21973 ft 409 kts 267°
2026-05-05 04:00 22.28285 115.34123 21346 ft 406 kts 267°
2026-05-05 04:01 22.28195 115.31090 20725 ft 402 kts 267°
2026-05-05 04:01 22.28098 115.28085 20094 ft 400 kts 267°
2026-05-05 04:01 22.28007 115.25092 19465 ft 397 kts 267°
2026-05-05 04:01 22.27918 115.22118 18828 ft 396 kts 266°
2026-05-05 04:02 22.27834 115.19161 18181 ft 391 kts 267°
2026-05-05 04:02 22.27754 115.16223 17542 ft 391 kts 266°
2026-05-05 04:02 22.27661 115.13285 16887 ft 388 kts 266°
2026-05-05 04:02 22.27566 115.10384 16234 ft 385 kts 266°
2026-05-05 04:03 22.27473 115.07502 15586 ft 383 kts 266°
2026-05-05 04:03 22.27379 115.04679 14942 ft 380 kts 266°
2026-05-05 04:03 22.27285 115.01834 14287 ft 378 kts 266°
2026-05-05 04:03 22.27192 114.99010 13633 ft 375 kts 266°
2026-05-05 04:04 22.27099 114.96199 12979 ft 372 kts 266°
2026-05-05 04:04 22.27008 114.93422 12475 ft 365 kts 266°
2026-05-05 04:04 22.26922 114.90745 12332 ft 348 kts 266°
2026-05-05 04:04 22.26866 114.89037 12244 ft 337 kts 266°
2026-05-05 04:05 22.26785 114.86554 12112 ft 322 kts 266°
2026-05-05 04:05 22.26706 114.84171 11986 ft 316 kts 266°
2026-05-05 04:05 22.26621 114.81793 11724 ft 317 kts 266°
2026-05-05 04:05 22.26380 114.79430 11243 ft 316 kts 256°
2026-05-05 04:06 22.25505 114.77284 10904 ft 314 kts 235°
2026-05-05 04:06 22.24044 114.75515 10795 ft 317 kts 225°
2026-05-05 04:06 22.22439 114.73874 10618 ft 317 kts 224°
2026-05-05 04:06 22.20845 114.72264 10466 ft 316 kts 224°
2026-05-05 04:07 22.19238 114.70625 10331 ft 318 kts 224°
2026-05-05 04:07 22.17670 114.69030 10187 ft 303 kts 224°
2026-05-05 04:07 22.16170 114.67488 10040 ft 292 kts 224°
2026-05-05 04:07 22.14716 114.66010 9902 ft 283 kts 224°
2026-05-05 04:08 22.13281 114.64550 9767 ft 283 kts 224°
2026-05-05 04:08 22.11859 114.63085 9636 ft 284 kts 224°
2026-05-05 04:08 22.10422 114.61611 9500 ft 283 kts 224°
2026-05-05 04:08 22.08998 114.60145 9385 ft 284 kts 224°
2026-05-05 04:09 22.07562 114.58672 9239 ft 284 kts 224°
2026-05-05 04:09 22.06132 114.57205 9107 ft 284 kts 224°
2026-05-05 04:09 22.04720 114.55757 8980 ft 284 kts 224°
2026-05-05 04:09 22.03287 114.54281 8844 ft 284 kts 224°
2026-05-05 04:10 22.02060 114.52622 8712 ft 284 kts 241°
2026-05-05 04:10 22.01236 114.50691 8571 ft 283 kts 248°
2026-05-05 04:10 22.00500 114.48717 8444 ft 283 kts 248°
2026-05-05 04:10 21.99765 114.46748 8311 ft 283 kts 248°
2026-05-05 04:11 21.99024 114.44782 8178 ft 284 kts 247°
2026-05-05 04:11 21.98274 114.42814 8046 ft 284 kts 247°
2026-05-05 04:11 21.97526 114.40850 7911 ft 283 kts 247°
2026-05-05 04:11 21.96775 114.38882 7781 ft 283 kts 247°
2026-05-05 04:12 21.96022 114.36923 7652 ft 283 kts 247°
2026-05-05 04:12 21.95273 114.34967 7512 ft 282 kts 247°
2026-05-05 04:12 21.94535 114.33041 7364 ft 281 kts 247°
2026-05-05 04:12 21.93786 114.31091 7228 ft 281 kts 247°
2026-05-05 04:13 21.93045 114.29152 7099 ft 280 kts 247°
2026-05-05 04:13 21.92303 114.27210 6967 ft 280 kts 247°
2026-05-05 04:13 21.91562 114.25284 6836 ft 279 kts 247°
2026-05-05 04:13 21.90813 114.23341 6703 ft 279 kts 247°
2026-05-05 04:14 21.90078 114.21406 6574 ft 279 kts 248°
2026-05-05 04:14 21.89685 114.19369 6439 ft 280 kts 270°
2026-05-05 04:14 21.90142 114.17369 6325 ft 280 kts 295°
2026-05-05 04:14 21.91060 114.15522 6185 ft 280 kts 299°
2026-05-05 04:15 21.92038 114.13698 6055 ft 281 kts 299°
2026-05-05 04:15 21.93005 114.11876 5971 ft 280 kts 299°
2026-05-05 04:15 21.93965 114.10052 5963 ft 280 kts 298°
2026-05-05 04:15 21.94919 114.08225 5968 ft 280 kts 298°
2026-05-05 04:16 21.95868 114.06392 5972 ft 280 kts 298°
2026-05-05 04:16 21.96815 114.04561 5863 ft 280 kts 298°
2026-05-05 04:16 21.97759 114.02733 5655 ft 278 kts 298°
2026-05-05 04:16 21.98686 114.00937 5474 ft 269 kts 298°
2026-05-05 04:17 21.99581 113.99197 5290 ft 261 kts 299°
2026-05-05 04:17 22.00453 113.97513 5109 ft 253 kts 299°
2026-05-05 04:17 22.01293 113.95874 4984 ft 246 kts 298°
2026-05-05 04:17 22.02122 113.94257 4973 ft 247 kts 299°
2026-05-05 04:18 22.02947 113.92660 4971 ft 247 kts 299°
2026-05-05 04:18 22.03788 113.91041 4970 ft 247 kts 300°
2026-05-05 04:18 22.04622 113.89429 4964 ft 246 kts 299°
2026-05-05 04:18 22.05449 113.87814 4964 ft 246 kts 299°
2026-05-05 04:19 22.06275 113.86199 4964 ft 246 kts 299°
2026-05-05 04:19 22.07104 113.84590 4958 ft 246 kts 299°
2026-05-05 04:19 22.07936 113.82973 4964 ft 247 kts 299°
2026-05-05 04:19 22.08763 113.81363 4924 ft 246 kts 300°
2026-05-05 04:20 22.09597 113.79752 4714 ft 246 kts 299°
2026-05-05 04:20 22.10493 113.78194 4482 ft 243 kts 309°
2026-05-05 04:20 22.11758 113.77043 4259 ft 235 kts 333°
2026-05-05 04:20 22.13212 113.76271 3980 ft 230 kts 338°
2026-05-05 04:21 22.14653 113.75571 3654 ft 224 kts 338°
2026-05-05 04:21 22.16047 113.74885 3367 ft 216 kts 338°
2026-05-05 04:21 22.17365 113.74233 3200 ft 201 kts 339°
2026-05-05 04:21 22.18618 113.73614 3034 ft 197 kts 340°
2026-05-05 04:22 22.19840 113.73012 2895 ft 194 kts 340°
2026-05-05 04:22 22.21063 113.72410 2767 ft 193 kts 339°
2026-05-05 04:22 22.22293 113.71830 2637 ft 191 kts 343°
2026-05-05 04:22 22.23576 113.71716 2507 ft 183 kts 16°
2026-05-05 04:23 22.24669 113.72362 2473 ft 179 kts 40°
2026-05-05 04:23 22.25614 113.73236 2461 ft 179 kts 43°
2026-05-05 04:23 22.26567 113.74146 2470 ft 185 kts 45°
2026-05-05 04:23 22.27528 113.75087 2459 ft 187 kts 47°
2026-05-05 04:24 22.28315 113.76187 2343 ft 183 kts 63°
2026-05-05 04:24 22.28721 113.77457 2112 ft 176 kts 75°
2026-05-05 04:24 22.29066 113.78677 1869 ft 164 kts 71°
2026-05-05 04:25 22.29796 113.80876 1458 ft 154 kts 71°
2026-05-05 04:25 22.30146 113.81974 1250 ft 153 kts 71°
2026-05-05 04:25 22.30485 113.83028 1046 ft 144 kts 71°
2026-05-05 04:25 22.30806 113.84025 864 ft 138 kts 71°
2026-05-05 04:26 22.31122 113.85010 682 ft 139 kts 71°
2026-05-05 04:26 22.31440 113.85997 498 ft 139 kts 71°
2026-05-05 04:26 22.31758 113.86987 273 ft 139 kts 71°
2026-05-05 04:26 22.32075 113.87961 109 ft 140 kts 71°
2026-05-05 04:27 22.32291 113.88628 49 ft 137 kts 71°
2026-05-05 04:27 22.32561 113.89463 43 ft 109 kts 71°
2026-05-05 04:27 22.32772 113.90118 43 ft 77 kts 71°
2026-05-05 04:28 22.32902 113.90521 43 ft 39 kts 71°
2026-05-05 04:28 22.32939 113.90771 43 ft 28 kts 95°
2026-05-05 04:28 22.32919 113.90907 44 ft 16 kts 100°
2026-05-05 04:28 22.32897 113.91032 44 ft 18 kts 97°
2026-05-05 04:29 22.32926 113.91155 44 ft 17 kts 70°
2026-05-05 04:29 22.32967 113.91282 44 ft 19 kts 71°
2026-05-05 04:29 22.33010 113.91415 44 ft 19 kts 71°
2026-05-05 04:29 22.33054 113.91553 44 ft 19 kts 71°
2026-05-05 04:30 22.33100 113.91697 44 ft 21 kts 71°
2026-05-05 04:30 22.33148 113.91842 43 ft 18 kts 71°
2026-05-05 04:30 22.33187 113.91963 43 ft 16 kts 71°
2026-05-05 04:30 22.33215 113.92066 43 ft 12 kts 90°
2026-05-05 04:31 22.33158 113.92123 43 ft 13 kts 160°
2026-05-05 04:31 22.33068 113.92158 43 ft 15 kts 160°
2026-05-05 04:31 22.32967 113.92196 43 ft 16 kts 161°
2026-05-05 04:31 22.32860 113.92236 43 ft 17 kts 160°
2026-05-05 04:32 22.32743 113.92280 43 ft 18 kts 161°
2026-05-05 04:32 22.32638 113.92319 43 ft 16 kts 161°
2026-05-05 04:32 22.32535 113.92358 43 ft 17 kts 161°
2026-05-05 04:32 22.32421 113.92401 43 ft 17 kts 160°
2026-05-05 04:33 22.32320 113.92439 43 ft 13 kts 160°
2026-05-05 04:33 22.32260 113.92467 43 ft 8 kts 140°
2026-05-05 04:33 22.32250 113.92528 43 ft 9 kts 74°
2026-05-05 04:33 22.32273 113.92602 43 ft 10 kts 75°
2026-05-05 04:34 22.32238 113.92664 43 ft 11 kts 150°
2026-05-05 04:34 22.32173 113.92689 43 ft 11 kts 161°
2026-05-05 04:34 22.32090 113.92720 42 ft 14 kts 161°
2026-05-05 04:34 22.31996 113.92756 42 ft 15 kts 161°
2026-05-05 04:35 22.31912 113.92788 43 ft 13 kts 159°
2026-05-05 04:35 22.31833 113.92823 43 ft 11 kts 156°
2026-05-05 04:35 22.31770 113.92853 43 ft 10 kts 156°
2026-05-05 04:35 22.31698 113.92881 43 ft 11 kts 160°
2026-05-05 04:36 22.31628 113.92908 43 ft 11 kts 161°
2026-05-05 04:36 22.31559 113.92925 43 ft 9 kts 188°
2026-05-05 04:36 22.31509 113.92901 43 ft 6 kts 182°
2026-05-05 04:36 22.31464 113.92916 43 ft 5 kts 161°
2026-05-05 04:37 22.31442 113.92924 43 ft 3 kts 161°
2026-05-05 04:37 22.31432 113.92927 43 ft 0 kts 161°